Stations météo

Publicité
Charleville, France (7075): Température de l'air & dewpoint: 15.06.2018 01:00:00 - 21.06.2018 01:00:00 (CEST)Charleville, France (7075): Température de l'air 5cm: 15.06.2018 01:00:00 - 21.06.2018 01:00:00 (CEST)Charleville, France (7075): Température de l'air -20cm & Température de l'air -100cm: 15.06.2018 01:00:00 - 21.06.2018 01:00:00 (CEST)Charleville, France (7075): Vitesse du vent & gusts: 15.06.2018 01:00:00 - 21.06.2018 01:00:00 (CEST)Charleville, France (7075): Direction du vent: 15.06.2018 01:00:00 - 21.06.2018 01:00:00 (CEST)Charleville, France (7075): reduced air pressure: 15.06.2018 01:00:00 - 21.06.2018 01:00:00 (CEST)Charleville, France (7075): visibility: 15.06.2018 01:00:00 - 21.06.2018 01:00:00 (CEST)Charleville, France (7075): Ensoleillement: 15.06.2018 01:00:00 - 21.06.2018 01:00:00 (CEST)Charleville, France (7075): Quantités de précipitations: 15.06.2018 01:00:00 - 21.06.2018 01:00:00 (CEST)
Date & Time tt [°C] td [°C] tt 5cm [°C] tt -20cm [°C] tt -100cm [°C] ff [km/h] ff [knt] fx [km/h] fx [knt] dd ppp [hPa] vv [km] sd [min] rr [mm]
21.06.2018 01:00:00 13,6 12,8 8,8 19,6 15,9 1 1 3 1 SSW 1019,2 20 0 0,0
21.06.2018 00:00:00 14,8 13,7 10,0 19,6 15,9 1 1 4 2 NW 1019,5 20 0 0,0
20.06.2018 23:00:00 16,5 13,8 11,8 19,6 15,9 3 1 8 4 ENE 1019,4 20 0 0,0
20.06.2018 22:00:00 21,3 14,5 16,7 19,6 15,9 6 3 15 8 W 1018,9 20 23 0,0
20.06.2018 21:00:00 24,3 14,7 22,4 19,5 15,8 10 5 22 12 W 1018,4 20 60 0,0
20.06.2018 20:00:00 26,2 14,0 25,8 19,4 15,9 13 7 23 13 WNW 1018,4 20 60 0,0
20.06.2018 19:00:00 27,0 14,4 26,8 19,3 15,9 13 7 26 14 W 1018,5 20 60 0,0
20.06.2018 18:00:00 27,5 14,8 27,1 19,1 15,9 11 6 23 12 W 1018,7 20 60 0,0
20.06.2018 17:00:00 27,5 14,8 30,1 19,0 15,9 13 7 23 12 WNW 1019,3 20 60 0,0
20.06.2018 16:00:00 27,4 15,4 28,6 18,8 15,9 8 4 23 12 WNW 1019,6 20 52 0,0
20.06.2018 15:00:00 27,0 15,7 32,3 18,7 15,8 6 3 22 12 NW 1020,1 20 56 0,0
20.06.2018 14:00:00 25,8 15,2 29,1 18,6 15,9 8 4 24 13 NW 1020,6 20 52 0,0
20.06.2018 13:00:00 25,4 15,7 27,3 18,6 15,9 6 3 17 9 N 1021,3 20 37 0,0
20.06.2018 12:00:00 24,7 16,1 29,9 18,5 15,9 9 5 23 13 SSW 1021,9 20 54 0,0
20.06.2018 11:00:00 22,7 14,8 30,1 18,5 15,9 6 3 17 9 WSW 1022,3 20 54 0,0
20.06.2018 10:00:00 22,6 14,9 27,1 18,5 15,9 3 2 13 7 WSW 1022,4 18 60 0,0
20.06.2018 09:00:00 21,5 14,9 25,6 18,5 15,9 4 2 10 5 NNE 1022,5 20 60 0,0
20.06.2018 08:00:00 19,7 16,5 18,5 18,6 15,9 3 1 8 4 NNW 1022,7 20 58 0,0
20.06.2018 07:00:00 16,4 15,8 14,1 18,6 15,9 1 1 3 2 ESE 1023,2 15 3 0,0
20.06.2018 06:00:00 16,1 15,5 13,6 18,6 15,9 2 1 3 1 SW 1023,3 1,4 0 0,0
20.06.2018 05:00:00 16,8 15,8 16,0 18,6 15,9 1 1 4 2 ESE 1023,3 20 0 0,0
20.06.2018 04:00:00 17,2 15,9 16,6 18,6 15,9 1 1 7 4 WSW 1023,7 20 0 0,0
20.06.2018 03:00:00 17,4 15,9 16,9 18,6 15,9 2 1 7 4 N 1023,8 20 0 0,0
20.06.2018 02:00:00 17,6 16,1 17,2 18,6 15,9 2 1 8 4 ENE 1024,2 3,7 0 0,0
20.06.2018 01:00:00 17,7 16,2 17,3 18,6 15,9 2 1 5 3 SE 1024,4 20 0 0,0
20.06.2018 00:00:00 18,2 16,4 17,7 18,6 15,9 4 2 10 6 NW 1024,7 20 0 0,0
19.06.2018 23:00:00 18,3 16,1 17,8 18,6 15,9 1 1 6 3 WSW 1024,6 20 0 0,0
19.06.2018 22:00:00 18,7 15,9 18,1 18,6 15,9 3 2 4 2 NNE 1024,4 20 0 0,0
19.06.2018 21:00:00 19,4 15,9 19,2 18,5 15,9 3 1 6 4 NNE 1024,3 20 0 0,0
19.06.2018 20:00:00 19,8 15,9 20,4 18,5 15,9 5 3 9 5 NW 1024,5 20 0 0,0
19.06.2018 19:00:00 20,0 15,6 21,3 18,5 15,9 3 2 15 8 WNW 1024,8 20 0 0,0
19.06.2018 18:00:00 20,0 15,4 20,6 18,4 15,8 9 5 16 8 WNW 1025,0 20 0 0,0
19.06.2018 17:00:00 20,0 15,6 21,8 18,4 15,9 4 2 14 8 N 1025,2 20 0 0,0
19.06.2018 16:00:00 19,4 15,5 20,7 18,4 15,9 9 5 23 12 W 1025,4 20 0 0,0
19.06.2018 15:00:00 19,4 15,3 21,6 18,3 15,9 6 3 20 11 WSW 1025,5 20 0 0,0
19.06.2018 14:00:00 19,8 15,4 20,6 18,3 15,9 9 5 24 13 W 1025,5 20 0 0,0
19.06.2018 13:00:00 19,3 15,0 21,0 18,3 15,9 9 5 19 10 WSW 1025,5 20 0 0,0
19.06.2018 12:00:00 18,8 15,1 19,6 18,2 15,9 8 4 24 13 SW 1025,6 20 0 0,0
19.06.2018 11:00:00 18,1 14,8 18,3 18,3 15,9 8 5 18 10 SW 1025,5 20 0 0,0
19.06.2018 10:00:00 17,1 14,9 18,2 18,3 15,9 7 4 16 9 WSW 1025,7 15 3 0,0
19.06.2018 09:00:00 16,0 14,7 15,6 18,3 15,9 6 4 12 6 W 1025,6 16 0 0,0
19.06.2018 08:00:00 14,8 14,2 14,9 18,4 15,9 6 3 11 6 WSW 1025,5 9 0 0,0
19.06.2018 07:00:00 14,4 13,9 14,3 18,4 15,9 4 2 5 3 E 1025,4 6 0 0,0
19.06.2018 06:00:00 14,0 13,5 13,7 18,4 15,9 3 2 4 2 ENE 1025,1 3,4 0 0,0
19.06.2018 05:00:00 13,4 12,9 13,1 18,5 15,9 1 1 4 2 ENE 1024,7 6 0 0,0
19.06.2018 04:00:00 12,7 12,4 9,6 18,6 15,9 1 1 5 3 NW 1024,5 15 0 0,0
19.06.2018 03:00:00 10,6 10,1 7,4 18,7 15,9 1 1 5 3 NE 1024,6 1,9 0 0,0
19.06.2018 02:00:00 11,1 10,6 7,5 18,7 15,9 4 2 8 4 NW 1024,4 5 0 0,0
19.06.2018 01:00:00 12,0 11,4 7,8 18,7 15,9 1 1 3 2 N 1023,8 20 0 0,0
19.06.2018 00:00:00 12,8 12,0 9,2 18,7 15,9 2 1 4 2 NNE 1023,7 20 0 0,0
18.06.2018 23:00:00 14,6 12,8 11,4 18,7 15,9 3 1 9 5 SSE 1023,3 20 0 0,0
18.06.2018 22:00:00 18,9 13,5 15,6 18,7 15,9 6 3 16 9 W 1022,6 20 22 0,0
18.06.2018 21:00:00 21,1 14,5 20,3 18,7 15,9 11 6 27 15 W 1022,2 20 49 0,0
18.06.2018 20:00:00 22,3 14,9 21,8 18,6 15,8 15 8 29 16 W 1021,5 20 40 0,0
18.06.2018 19:00:00 21,6 14,7 22,6 18,6 15,9 12 6 23 13 W 1021,5 20 12 0,0
18.06.2018 18:00:00 22,1 14,5 23,7 18,5 15,9 13 7 30 16 WSW 1021,4 20 27 0,0
18.06.2018 17:00:00 21,9 15,0 22,1 18,4 15,9 12 6 27 15 SW 1021,7 20 6 0,0
18.06.2018 16:00:00 20,7 14,6 23,1 18,4 15,9 14 8 28 15 WSW 1022,2 20 3 0,0
18.06.2018 15:00:00 20,0 14,6 22,2 18,3 15,8 13 7 34 19 WSW 1022,2 20 13 0,0
18.06.2018 14:00:00 19,8 14,6 21,4 18,3 15,9 13 7 30 16 SW 1022,3 20 0 0,0
18.06.2018 13:00:00 19,2 14,5 20,1 18,2 15,8 12 6 27 14 SW 1022,4 20 0 0,0
18.06.2018 12:00:00 19,0 13,6 19,7 18,2 15,8 14 8 24 13 WSW 1022,2 20 0 0,0
18.06.2018 11:00:00 18,8 13,4 21,6 18,2 15,9 11 6 24 13 SW 1022,1 20 2 0,0
18.06.2018 10:00:00 17,9 13,0 20,6 18,2 15,9 11 6 21 12 WSW 1022,1 20 0 0,0
18.06.2018 09:00:00 17,6 12,9 18,5 18,3 15,9 6 3 16 9 SSW 1021,7 20 10 0,0
18.06.2018 08:00:00 15,9 12,6 15,5 18,3 15,9 7 4 11 6 ESE 1021,6 20 7 0,0
18.06.2018 07:00:00 14,6 12,8 13,8 18,4 15,9 7 4 10 6 E 1021,7 20 0 0,0
18.06.2018 06:00:00 14,0 12,2 13,4 18,4 15,9 6 3 9 5 ESE 1021,4 20 0 0,0
18.06.2018 05:00:00 13,6 12,0 13,2 18,4 15,9 3 2 4 2 ESE 1021,3 20 0 0,0
18.06.2018 04:00:00 13,4 12,1 12,8 18,5 15,9 1 1 4 2 S 1021,1 20 0 0,0
18.06.2018 03:00:00 12,9 12,0 12,4 18,5 15,9 1 1 4 2 S 1021,3 20 0 0,0
18.06.2018 02:00:00 12,4 11,8 9,7 18,6 15,9 1 1 4 2 E 1021,5 20 0 0,0
18.06.2018 01:00:00 11,9 10,8 10,0 18,6 15,9 4 2 4 2 ESE 1021,3 16 0 0,0
18.06.2018 00:00:00 13,0 10,9 10,8 18,6 15,8 3 2 6 3 SSE 1021,5 20 0 0,0
17.06.2018 23:00:00 13,4 11,5 10,3 18,6 15,9 3 2 6 3 SE 1021,3 20 0 0,0
17.06.2018 22:00:00 15,6 11,2 11,5 18,6 15,9 3 2 8 4 SSW 1020,9 20 15 0,0
17.06.2018 21:00:00 17,4 10,3 16,7 18,6 15,8 5 3 11 6 SW 1020,6 20 23 0,0
17.06.2018 20:00:00 17,7 10,1 17,8 18,6 15,8 7 4 15 8 WSW 1020,6 20 0 0,0
17.06.2018 19:00:00 17,4 9,8 16,7 18,6 15,8 6 4 22 12 WSW 1020,3 20 0 0,0
17.06.2018 18:00:00 18,3 9,1 20,2 18,5 15,8 12 7 32 18 W 1020,1 20 0 0,0
17.06.2018 17:00:00 18,5 9,3 21,7 18,5 15,9 16 8 27 15 W 1020,1 20 18 0,0
17.06.2018 16:00:00 17,8 8,4 21,9 18,5 15,9 13 7 28 15 W 1020,1 20 29 0,0
17.06.2018 15:00:00 17,6 9,2 17,7 18,4 15,8 16 8 31 17 W 1020,2 20 15 0,0
17.06.2018 14:00:00 16,1 9,3 18,0 18,5 15,9 14 8 27 15 W 1020,1 20 0 0,0
17.06.2018 13:00:00 16,5 9,4 20,1 18,4 15,8 11 6 26 14 W 1019,8 20 1 0,0
17.06.2018 12:00:00 17,1 10,0 19,8 18,5 15,8 16 9 28 15 WNW 1019,5 20 12 0,0
17.06.2018 11:00:00 16,2 10,5 19,5 18,5 15,9 18 10 29 16 W 1019,5 20 0 0,0
17.06.2018 10:00:00 16,3 10,4 18,4 18,5 15,9 13 7 26 14 W 1019,3 20 24 0,0
17.06.2018 09:00:00 14,7 12,4 15,5 18,6 15,9 3 1 6 3 WNW 1019,1 18 0 0,0
17.06.2018 08:00:00 13,2 12,3 13,0 18,6 15,8 3 1 5 3 SE 1018,8 16 0 0,0
17.06.2018 07:00:00 12,1 11,5 11,7 18,7 15,8 2 1 20 11 SW 1018,7 15 0 0,0
17.06.2018 06:00:00 11,4 10,9 10,7 18,8 15,9 1 1 5 3 SW 1018,5 15 0 0,0
17.06.2018 05:00:00 10,5 10,0 6,9 18,8 15,9 1 1 6 3 E 1018,3 11 0 0,0
17.06.2018 04:00:00 9,9 9,4 6,9 18,9 15,9 3 1 4 2 NNW 1018,1 11 0 0,0
17.06.2018 03:00:00 10,8 10,2 7,5 19,0 15,9 3 2 5 3 W 1017,8 7 0 0,0
17.06.2018 02:00:00 11,7 10,8 9,0 19,0 15,8 1 1 8 4 SE 1017,7 11 0 0,0
17.06.2018 01:00:00 12,0 11,5 8,0 19,1 15,9 3 2 5 3 SSE 1017,7 16 0 0,0
17.06.2018 00:00:00 12,2 11,3 7,8 19,1 15,9 2 1 4 2 WSW 1017,6 17 0 0,0
16.06.2018 23:00:00 13,2 11,4 9,2 19,1 15,8 2 1 5 3 ESE 1017,5 15 0 0,0
16.06.2018 22:00:00 16,7 11,2 11,9 19,1 15,8 5 3 6 4 W 1016,8 20 22 0,0
16.06.2018 21:00:00 18,8 11,8 17,1 19,1 15,8 4 2 22 12 W 1016,3 20 24 0,0
16.06.2018 20:00:00 20,0 11,0 20,0 19,1 15,9 16 8 29 16 WNW 1016,2 20 35 0,0
16.06.2018 19:00:00 20,9 12,1 20,6 19,0 15,8 11 6 26 14 W 1015,8 20 24 0,0
16.06.2018 18:00:00 20,5 11,9 21,2 18,9 15,8 10 5 26 14 W 1015,7 20 20 0,0
16.06.2018 17:00:00 21,2 11,5 24,5 18,8 15,8 16 9 25 14 W 1015,8 20 27 0,0
16.06.2018 16:00:00 20,3 13,0 24,4 18,7 15,8 12 6 22 12 WNW 1015,6 20 7 0,0
16.06.2018 15:00:00 19,7 13,8 24,2 18,7 15,8 7 4 17 9 NNW 1015,5 20 36 0,0
16.06.2018 14:00:00 18,9 13,3 19,1 18,7 15,8 2 1 14 8 W 1016,1 20 32 0,0
16.06.2018 13:00:00 15,1 11,5 17,2 18,7 15,8 11 6 24 13 W 1017,1 9 0 0,2
16.06.2018 12:00:00 18,6 12,8 20,9 18,7 15,8 17 9 28 15 WNW 1016,6 20 0 0,0
16.06.2018 11:00:00 19,2 14,5 22,0 18,7 15,8 3 2 10 5 NE 1015,8 20 13 0,0
16.06.2018 10:00:00 17,7 13,0 20,7 18,7 15,8 5 3 11 6 SE 1016,0 20 12 0,0
16.06.2018 09:00:00 16,2 12,7 20,3 18,8 15,9 1 1 8 4 SW 1016,3 20 43 0,0
16.06.2018 08:00:00 14,4 12,4 13,7 18,8 15,8 1 1 6 3 ESE 1016,3 19 55 0,0
16.06.2018 07:00:00 12,0 11,4 10,6 18,9 15,9 2 1 7 4 NNW 1016,4 13 0 0,0
16.06.2018 06:00:00 11,5 10,9 10,6 19,0 15,8 4 2 10 5 NW 1016,5 17 0 0,0
16.06.2018 05:00:00 11,0 10,4 8,6 19,0 15,9 6 3 8 5 WNW 1016,6 19 0 0,0
16.06.2018 04:00:00 11,7 11,2 8,6 19,1 15,9 3 2 7 4 WNW 1016,8 19 0 0,0
16.06.2018 03:00:00 11,9 11,1 8,5 19,1 15,9 2 1 6 4 W 1016,7 1,7 0 0,0
16.06.2018 02:00:00 13,2 12,4 10,3 19,2 15,9 3 2 6 3 WNW 1017,0 20 0 0,0
16.06.2018 01:00:00 12,6 12,0 10,7 19,2 15,8 3 1 4 2 ENE 1016,9 20 0 0,0
16.06.2018 00:00:00 13,2 12,1 9,2 19,2 15,8 2 1 4 2 NW 1017,0 20 0 0,0
15.06.2018 23:00:00 13,6 12,2 9,2 19,2 15,9 1 1 5 3 NNW 1016,7 8 0 0,0
15.06.2018 22:00:00 16,3 12,8 12,3 19,2 15,9 2 1 13 7 NNE 1016,5 20 21 0,0
15.06.2018 21:00:00 20,7 11,9 18,9 19,1 15,8 7 4 14 8 NW 1016,1 20 39 0,0
15.06.2018 20:00:00 22,0 11,1 21,5 19,1 15,8 8 5 18 10 NW 1016,1 20 54 0,0
15.06.2018 19:00:00 23,0 11,4 23,0 19,0 15,9 9 5 18 10 WNW 1016,0 20 60 0,0
15.06.2018 18:00:00 23,1 10,8 22,6 18,9 15,8 11 6 20 11 W 1016,0 20 33 0,0
15.06.2018 17:00:00 23,2 11,6 26,1 18,8 15,9 11 6 23 12 WSW 1016,3 20 48 0,0
15.06.2018 16:00:00 22,9 10,7 29,1 18,6 15,9 11 6 26 14 WSW 1016,6 20 55 0,0
15.06.2018 15:00:00 22,0 11,1 24,8 18,6 15,9 9 5 19 11 W 1016,7 20 37 0,0
15.06.2018 14:00:00 21,2 10,7 25,2 18,5 15,8 9 5 22 12 W 1017,0 15 39 0,0
15.06.2018 13:00:00 20,6 12,8 23,6 18,4 15,9 9 5 22 12 SSW 1017,3 9 19 0,0
15.06.2018 12:00:00 19,5 13,0 22,4 18,4 15,8 11 6 24 13 SW 1017,4 20 30 0,0
15.06.2018 11:00:00 18,2 11,5 23,1 18,5 15,9 12 7 23 12 W 1017,6 20 27 0,0
15.06.2018 10:00:00 17,5 11,3 22,2 18,5 15,8 8 5 16 9 W 1017,7 20 36 0,0
15.06.2018 09:00:00 16,0 12,0 20,9 18,5 15,8 9 5 17 9 WNW 1017,8 20 43 0,0
15.06.2018 08:00:00 15,5 12,3 14,1 18,6 15,9 2 1 6 3 W 1017,3 20 56 0,0
15.06.2018 07:00:00 13,6 12,2 8,0 18,6 15,8 2 1 9 5 S 1017,1 20 48 0,0
15.06.2018 06:00:00 12,0 10,6 8,0 18,6 15,9 1 1 6 3 SW 1017,1 19 0 0,0
15.06.2018 05:00:00 13,7 11,4 12,4 18,7 15,9 3 2 12 6 WNW 1016,9 20 0 0,0
15.06.2018 04:00:00 14,7 11,8 14,0 18,7 15,8 8 5 12 7 W 1016,9 20 0 0,0
15.06.2018 03:00:00 15,1 14,1 14,8 18,7 15,9 4 2 10 5 NW 1016,9 11 0 0,0
15.06.2018 02:00:00 15,2 14,4 14,7 18,7 15,8 4 2 8 5 W 1017,1 12 0 0,0
15.06.2018 01:00:00 15,3 14,7 15,1 18,7 15,9 2 1 6 3 NE 1017,3 8 0 0,0

tt = Température de l'air
td = dewpoint
tt 5cm = Température de l'air 5cm
tt -20cm = Température de l'air -20cm
tt -100cm = Température de l'air -100cm
ff = Vitesse du vent
fx = gusts
dd = Direction du vent
ppp = reduced air pressure
vv = visibility
sd = Ensoleillement
rr = Quantités de précipitations

stations d'obs. à proximité